Temperature
19 18 18 18 18 18 18 18 18 18 18 18 18 18 18 18 18 18 18 18 18 18 18 18 18 18 18 18 18 18 18 18 18 18 18 18 18 18 17 17 17 17 17
19 18 18 18 18 18 18 18 18 18 18 18 18 18 18 18 18 18 18 18 18 18 18 18 18 18 18 18 18 18 18 18 18 18 18 18 18 17 17 17 17 17 17
19 18 18 18 18 18 18 18 18 18 18 18 18 18 18 18 18 18 18 18 18 18 18 18 18 18 18 18 18 18 18 18 18 18 17 17 17 17 17 17 17 17 17
19 18 17 18 18 18 18 18 18 18 18 18 18 18 18 18 18 18 18 18 18 18 18 18 18 18 18 18 18 18 18 18 18 17 17 17 17 17 17 17 17 17 17
19 18 18 18 18 18 18 18 18 18 18 18 18 18 18 18 18 18 18 18 18 18 18 17 17 17 17 18 18 18 18 18 17 17 17 17 17 17 17 17 17 17 17
19 18 18 18 18 18 18 18 18 18 18 18 18 18 18 18 17 17 17 17 17 17 17 17 17 17 17 18 18 18 18 17 17 17 17 17 17 17 17 17 17 17 17
19 19 18 18 18 18 18 18 18 18 18 18 18 18 18 17 17 17 17 17 17 17 17 17 17 17 17 17 17 18 17 17 17 17 17 17 17 17 17 17 17 17 17
19 19 18 18 18 18 18 18 18 18 18 18 18 18 18 17 17 17 17 17 17 17 17 17 17 17 17 17 18 18 18 17 17 17 17 17 17 17 17 17 17 17 17
19 19 18 18 18 18 18 18 18 18 18 18 18 18 18 17 17 17 17 17 17 17 17 17 17 17 17 17 18 17 17 17 17 17 17 17 17 17 17 17 17 17 17
19 19 18 18 18 18 17 18 18 18 18 18 18 18 18 17 17 17 17 17 17 17 17 17 17 17 17 17 18 18 17 17 18 18 17 17 17 17 17 17 17 17 17
19 19 19 19 18 18 18 18 18 18 18 18 18 18 17 17 17 17 17 17 17 17 17 17 17 17 17 17 17 17 17 17 18 18 17 17 17 17 17 17 17 17 17
19 19 18 18 18 18 18 18 17 17 17 17 17 17 17 17 17 17 17 17 17 17 17 17 17 17 17 17 17 17 17 18 18 18 17 17 17 17 17 17 17 17 17
20 19 19 19 18 18 18 18 18 18 18 17 17 17 17 17 17 17 17 17 17 17 17 17 17 17 17 17 17 18 18 18 18 18 17 17 17 17 17 17 17 17 17
20 19 19 19 18 18 18 18 18 18 18 18 18 17 17 17 17 17 17 17 17 17 17 17 17 17 17 17 17 17 17 18 18 18 17 18 17 17 17 17 17 17 17
20 19 19 19 18 18 18 18 18 18 18 18 17 17 17 17 17 17 17 17 17 17 17 17 17 17 17 17 17 17 17 17 17 18 17 18 17 17 17 17 17 17 17
20 19 19 19 18 18 18 18 18 18 18 18 17 17 17 17 17 17 17 17 17 17 17 17 17 17 17 17 17 17 17 17 17 17 17 17 18 17 17 17 17 17 17
20 20 19 19 19 19 18 18 18 18 18 18 17 17 17 17 17 17 17 17 17 17 17 17 17 17 17 17 17 17 17 17 17 17 17 17 17 17 17 17 17 17 17
20 20 20 19 19 19 19 18 18 18 18 18 18 17 17 17 17 17 17 17 17 17 17 17 17 17 17 17 17 17 17 17 17 17 17 17 17 17 17 17 17 17 17
21 20 20 20 19 19 19 19 18 18 18 18 18 18 17 17 17 17 17 17 17 17 17 17 17 17 17 17 17 17 18 17 17 17 17 17 17 17 17 17 17 17 17
21 20 20 20 19 19 19 19 18 18 18 18 18 18 18 17 17 17 17 17 17 17 17 17 17 17 17 17 18 18 18 18 18 18 17 17 17 17 17 17 17 17 17
21 21 20 20 20 20 19 19 19 19 18 18 18 18 18 17 17 18 18 17 17 17 17 17 17 17 17 17 17 18 18 18 18 18 18 18 18 17 17 17 17 17 17
22 21 21 20 20 20 19 19 19 19 18 18 18 18 18 18 18 18 18 18 17 18 17 17 17 17 17 17 17 18 18 18 18 18 18 17 17 17 17 17 17 17 17
22 22 21 21 20 20 20 19 19 19 19 18 18 18 18 18 18 18 18 18 18 17 18 18 17 17 17 17 17 18 18 19 19 18 18 17 17 17 17 17 17 17 17
22 22 21 21 21 20 20 19 19 19 19 19 19 19 18 18 18 18 18 18 18 18 18 18 18 17 17 17 17 17 17 18 18 18 18 18 17 17 17 17 17 17 17
23 22 22 21 21 21 20 20 20 19 19 19 19 19 18 18 18 18 18 18 18 18 18 18 18 17 17 17 17 17 17 17 17 18 18 18 17 17 17 17 17 17 16
23 22 22 22 21 21 21 20 20 19 19 19 19 18 18 18 18 18 18 18 18 18 18 18 18 17 17 17 17 17 17 17 17 17 18 17 17 17 17 17 16 16 16
Wind_Speed
5 7 9 7 8 9 11 12 13 13 13 13 13 14 14 14 14 14 14 14 15 15 15 14 15 15 15 15 15 15 14 14 14 13 13 13 13 13 13 12 12 13 14
7 9 10 8 9 10 12 12 13 13 13 13 13 13 13 13 14 14 14 13 14 14 14 14 14 14 14 14 14 13 13 13 13 12 12 13 12 12 11 9 8 12 13
9 10 10 10 10 10 11 12 13 12 12 12 12 12 12 13 13 13 13 13 13 13 14 14 13 13 13 13 13 13 13 12 12 11 10 11 12 11 11 11 12 13 13
9 10 10 11 10 11 11 11 12 12 12 11 11 12 12 12 12 12 12 12 12 12 13 13 13 13 13 12 13 13 12 12 10 9 8 9 11 12 11 11 12 12 12
8 9 12 10 10 10 10 11 11 11 11 11 11 11 11 11 11 12 12 12 12 12 12 13 13 13 12 12 12 11 11 10 8 6 7 8 10 12 11 12 12 12 12
9 9 12 9 9 10 10 10 10 10 10 10 10 11 11 10 10 11 11 12 12 12 12 12 12 12 12 11 11 11 10 9 8 7 7 7 10 11 11 11 12 11 11
9 9 12 10 10 10 10 9 9 9 9 10 10 11 11 10 10 11 12 12 12 12 12 12 11 11 10 10 10 9 9 6 5 6 7 7 10 11 10 10 11 11 11
9 9 12 11 9 9 9 9 9 8 8 9 10 11 11 11 10 11 11 11 11 11 11 11 10 10 9 9 9 9 8 6 7 6 6 8 11 10 9 10 10 10 10
7 8 9 10 10 9 8 8 8 7 8 9 9 9 10 10 10 10 10 10 10 10 10 10 9 9 8 8 8 8 6 4 4 6 6 7 11 9 9 9 9 9 9
6 7 7 7 8 8 10 9 7 7 8 8 8 9 9 10 10 10 10 10 9 9 9 9 9 8 8 8 8 7 6 7 4 6 5 9 10 8 8 8 9 9 9
6 5 5 6 7 7 7 10 8 8 8 8 8 8 7 7 8 9 10 9 9 9 9 9 9 8 8 9 8 7 7 4 4 4 5 11 9 7 7 7 8 9 9
7 6 5 5 6 6 6 7 6 6 7 5 6 6 6 6 5 7 10 9 8 9 8 8 8 8 7 7 9 9 5 4 3 4 7 10 8 7 7 7 8 9 9
8 6 6 6 5 5 5 5 4 4 5 5 6 5 5 5 5 6 6 8 8 9 7 8 7 5 4 3 3 4 3 3 2 3 8 10 8 8 8 7 8 9 10
7 7 6 6 5 4 3 4 4 4 4 4 5 4 4 3 3 4 3 4 5 5 5 5 3 4 3 3 3 2 3 2 2 2 7 9 7 8 8 8 8 9 10
7 7 6 5 5 4 3 2 3 3 4 4 4 4 3 3 3 4 3 2 3 4 5 4 4 4 4 4 3 3 2 2 2 2 5 9 8 8 9 9 9 10 10
7 7 7 6 6 5 4 3 2 3 3 3 4 4 3 3 3 3 4 3 3 3 3 3 3 3 3 2 3 3 3 3 3 3 3 8 10 9 9 10 10 10 11
8 8 8 7 7 6 5 4 4 3 4 4 4 4 4 3 3 3 2 3 3 3 4 3 3 3 3 3 3 3 3 3 3 3 4 4 7 11 10 10 10 10 11
9 9 8 7 7 7 5 4 4 3 4 4 4 4 4 3 3 3 3 3 3 3 3 3 3 3 2 2 2 3 2 2 3 4 5 5 5 6 10 11 9 9 10
9 9 9 8 8 7 6 5 4 3 3 4 4 4 4 4 4 4 3 2 4 3 3 3 3 3 3 2 3 3 3 3 3 4 4 4 4 5 5 10 11 9 10
10 10 9 9 8 8 7 5 4 4 4 4 4 4 4 5 5 4 4 4 4 3 3 2 2 3 3 3 4 2 2 3 4 4 4 4 4 6 6 6 8 10 11
11 11 10 10 9 8 6 6 6 5 5 4 4 5 5 5 5 5 3 4 4 4 4 4 4 4 4 3 3 3 3 4 4 4 4 3 4 5 5 6 7 6 8
12 12 11 11 11 10 7 6 5 4 4 4 4 4 6 6 6 6 5 5 5 4 5 5 5 4 4 4 4 3 3 4 4 4 4 5 4 4 5 7 6 6 6
13 13 12 12 11 11 9 7 5 4 5 4 5 5 5 6 6 6 5 5 5 6 5 6 6 7 5 4 5 4 4 3 1 3 4 4 4 4 5 5 6 7 7
13 13 12 12 11 10 10 9 8 7 6 5 4 4 4 5 5 5 6 5 5 5 5 7 7 6 6 5 4 5 5 4 3 3 4 4 4 5 5 5 5 6 6
13 12 12 12 11 11 11 10 9 8 6 5 5 5 4 4 5 5 5 5 5 5 5 6 5 6 6 6 5 5 5 4 7 5 5 4 4 4 4 5 4 4 5
12 12 12 12 11 11 11 11 10 9 7 6 5 5 5 4 4 5 5 5 5 5 5 5 5 6 6 6 6 5 5 4 5 5 6 5 5 4 4 3 4 4 4
Wind_Direction
108 104 102 118 114 110 110 111 111 110 112 116 117 117 118 119 121 121 121 121 120 119 120 120 119 116 116 117 116 116 115 116 117 118 118 118 120 123 125 130 132 117 120
114 110 108 112 112 110 109 113 114 112 112 116 119 120 120 122 123 122 122 124 125 125 123 120 120 118 116 118 118 117 117 119 120 122 125 124 124 128 130 126 107 117 128
116 115 117 109 109 107 109 112 112 112 110 114 120 121 122 123 123 123 123 124 125 126 125 124 124 122 121 122 120 119 121 123 125 132 145 132 127 128 127 122 116 124 128
116 116 108 109 110 108 109 113 113 112 111 111 118 122 122 122 122 123 123 126 127 127 127 128 128 127 125 123 123 123 124 125 132 156 148 128 132 128 131 130 129 130 130
112 113 108 112 113 114 114 117 116 114 112 112 116 122 121 118 122 125 127 130 128 126 126 128 127 127 126 126 127 128 128 130 148 178 123 122 122 127 132 133 133 134 134
122 120 111 112 115 118 117 119 118 116 115 113 114 116 116 113 123 127 129 130 127 125 125 125 126 126 126 126 128 131 133 145 175 132 121 123 120 129 135 137 137 138 138
124 117 116 111 114 120 119 117 114 114 116 118 117 114 114 114 114 120 119 121 122 123 123 124 126 129 131 130 130 133 137 162 151 126 125 119 116 131 139 141 142 141 140
124 121 119 123 117 118 122 121 120 120 120 119 121 120 121 120 116 116 116 119 121 121 123 125 127 129 132 132 133 134 146 190 147 135 129 121 120 135 140 145 147 146 147
124 125 128 134 134 128 119 126 121 126 127 120 121 123 123 122 119 116 117 120 121 122 124 123 125 130 133 135 139 144 156 217 173 139 134 121 128 142 147 151 153 152 154
127 127 131 133 129 137 134 128 123 118 118 117 120 125 127 131 130 129 130 123 124 127 127 126 128 129 133 138 142 151 169 212 172 145 134 124 137 152 157 157 160 160 160
141 138 134 131 131 132 129 130 137 133 130 136 130 131 144 136 130 138 118 126 132 132 129 129 132 135 143 149 151 162 192 202 142 136 121 119 146 161 168 170 169 170 171
150 149 142 141 139 135 129 134 144 143 135 138 126 130 128 117 118 116 122 134 137 135 135 135 143 163 183 154 159 186 192 174 158 147 125 135 160 172 180 185 183 180 181
149 151 155 148 142 138 138 142 137 134 132 133 120 120 120 133 132 131 137 146 149 156 153 151 173 172 160 142 164 177 175 178 159 150 135 150 171 183 190 192 188 187 189
151 157 156 151 151 151 142 139 153 146 136 127 126 134 132 129 131 125 132 137 149 150 153 157 153 151 155 162 175 172 178 201 172 155 137 155 183 196 196 196 194 195 196
163 164 161 161 158 161 161 174 146 140 140 135 141 144 151 152 144 135 133 141 148 144 159 167 165 158 171 182 192 182 191 197 208 200 147 160 185 198 201 200 201 202 203
175 172 169 173 169 173 173 172 164 156 148 149 158 154 166 162 148 153 156 157 156 160 155 174 175 175 193 192 200 194 210 204 199 219 200 172 185 199 207 208 208 208 206
181 180 178 181 179 180 183 183 177 173 162 171 161 166 183 179 162 176 163 178 167 162 170 190 187 189 201 200 202 208 214 225 214 222 225 216 191 192 201 209 214 213 210
183 182 188 189 180 183 186 191 182 178 170 177 177 170 184 187 185 198 192 189 175 195 192 190 209 197 204 217 216 230 221 212 227 230 228 220 218 204 192 196 207 213 215
188 187 188 191 187 187 183 189 192 187 195 190 187 190 184 191 194 211 205 184 201 203 207 221 187 212 208 222 233 226 237 230 231 234 237 226 215 221 208 179 195 209 216
190 190 191 191 189 187 186 189 197 198 201 201 199 200 200 197 200 214 206 196 213 207 209 221 225 230 226 224 247 239 241 233 232 232 235 221 214 219 221 210 198 204 209
190 190 192 196 188 189 191 196 196 197 201 203 208 205 206 206 202 217 228 198 217 214 223 223 230 220 224 214 230 234 230 226 223 225 232 238 223 221 221 220 226 224 203
192 192 192 196 194 197 194 199 202 206 211 210 214 205 214 213 213 211 221 222 217 219 222 227 232 241 235 215 234 242 238 217 213 221 220 224 235 227 223 221 223 225 236
194 195 196 198 196 200 195 196 195 198 217 208 209 206 212 215 218 228 224 230 226 230 224 226 228 233 240 234 233 250 262 257 241 212 221 227 230 234 235 232 230 229 230
195 193 195 195 197 197 198 204 204 210 215 213 210 202 203 212 221 223 230 235 236 242 238 237 226 235 241 244 238 242 257 278 268 256 227 221 225 236 244 241 234 224 228
192 190 190 191 194 195 200 203 209 219 219 213 205 201 214 210 216 226 233 236 235 241 245 253 245 243 239 243 245 244 245 243 249 260 264 252 240 239 236 240 242 235 227
187 186 186 187 192 194 198 204 210 216 217 216 213 210 214 209 211 216 227 231 237 246 243 246 247 239 244 249 253 250 248 250 254 254 263 263 258 250 241 247 250 242 232
Height
1523 1522 1520 1520 1520 1521 1521 1522 1523 1524 1525 1526 1527 1528 1529 1530 1531 1533 1534 1536 1537 1538 1540 1542 1543 1544 1546 1547 1549 1550 1551 1552 1553 1554 1555 1556 1557 1558 1559 1560 1562 1563 1563
1525 1524 1522 1522 1523 1523 1524 1524 1525 1526 1527 1528 1529 1530 1531 1532 1534 1535 1536 1538 1539 1540 1542 1544 1545 1546 1548 1549 1551 1552 1553 1554 1555 1556 1557 1558 1559 1560 1561 1562 1563 1564 1564
1526 1526 1525 1525 1525 1526 1526 1527 1528 1529 1529 1530 1531 1532 1534 1535 1536 1537 1539 1540 1541 1542 1544 1545 1546 1548 1550 1551 1552 1553 1554 1555 1556 1558 1559 1560 1560 1561 1562 1563 1564 1565 1566
1528 1529 1528 1527 1528 1528 1529 1530 1531 1531 1532 1532 1533 1534 1536 1537 1538 1539 1541 1542 1543 1544 1546 1547 1548 1550 1551 1552 1553 1555 1556 1557 1558 1559 1562 1563 1563 1563 1564 1565 1566 1566 1567
1530 1531 1529 1529 1530 1530 1531 1532 1533 1533 1534 1534 1535 1536 1538 1539 1540 1541 1542 1544 1545 1546 1547 1549 1550 1551 1553 1554 1555 1556 1557 1558 1559 1561 1564 1564 1564 1564 1565 1566 1567 1568 1569
1532 1533 1531 1531 1531 1532 1533 1534 1534 1535 1536 1537 1537 1539 1540 1540 1541 1543 1544 1545 1546 1548 1549 1551 1552 1553 1554 1555 1556 1558 1559 1560 1561 1564 1565 1565 1566 1565 1566 1567 1568 1569 1570
1534 1535 1533 1532 1532 1533 1534 1535 1536 1537 1538 1539 1539 1540 1541 1542 1543 1544 1545 1546 1548 1549 1551 1552 1553 1555 1556 1557 1558 1559 1560 1561 1564 1565 1566 1567 1566 1567 1567 1568 1569 1570 1571
1536 1536 1535 1534 1534 1535 1536 1537 1538 1539 1540 1541 1541 1542 1543 1544 1545 1546 1547 1549 1550 1551 1553 1554 1555 1556 1557 1558 1559 1560 1561 1563 1566 1567 1568 1568 1567 1568 1569 1569 1570 1571 1572
1538 1538 1538 1538 1537 1537 1537 1538 1540 1540 1541 1542 1543 1544 1545 1546 1547 1548 1550 1551 1552 1553 1554 1555 1557 1558 1559 1559 1560 1562 1563 1564 1567 1568 1569 1569 1568 1569 1569 1570 1571 1572 1573
1538 1540 1539 1540 1540 1541 1540 1540 1541 1542 1543 1544 1545 1546 1547 1548 1549 1550 1551 1552 1553 1555 1556 1557 1558 1559 1560 1561 1562 1563 1564 1565 1569 1569 1570 1569 1569 1569 1570 1571 1572 1573 1574
1539 1540 1541 1542 1542 1543 1544 1543 1544 1544 1545 1546 1547 1547 1548 1550 1551 1552 1553 1553 1555 1556 1557 1558 1559 1560 1561 1562 1563 1564 1565 1568 1569 1570 1570 1569 1569 1570 1571 1571 1572 1573 1574
1540 1541 1542 1543 1543 1544 1545 1545 1546 1547 1547 1548 1548 1549 1550 1551 1553 1554 1554 1555 1556 1557 1558 1559 1561 1562 1563 1565 1565 1565 1568 1569 1570 1570 1569 1569 1569 1570 1570 1571 1572 1573 1574
1541 1542 1543 1544 1544 1545 1546 1547 1548 1548 1548 1549 1549 1550 1551 1553 1554 1555 1555 1556 1557 1558 1560 1561 1562 1564 1565 1565 1566 1567 1568 1569 1570 1570 1569 1569 1569 1570 1570 1571 1572 1573 1573
1542 1543 1544 1544 1545 1545 1547 1548 1548 1550 1550 1551 1550 1551 1552 1554 1555 1556 1556 1557 1558 1559 1560 1562 1563 1564 1564 1565 1566 1567 1568 1569 1569 1570 1569 1569 1569 1570 1570 1570 1571 1572 1573
1542 1543 1544 1544 1544 1545 1546 1548 1549 1550 1551 1551 1551 1552 1553 1554 1555 1556 1556 1557 1559 1560 1561 1562 1563 1564 1564 1565 1566 1567 1568 1568 1569 1569 1569 1568 1568 1569 1569 1570 1570 1571 1572
1542 1543 1544 1544 1545 1545 1547 1548 1549 1550 1550 1552 1552 1553 1553 1555 1555 1556 1557 1558 1559 1560 1561 1562 1563 1564 1565 1565 1566 1566 1567 1568 1568 1568 1569 1568 1567 1568 1568 1569 1569 1570 1570
1541 1542 1543 1544 1545 1546 1547 1548 1550 1551 1551 1552 1553 1553 1554 1555 1555 1556 1558 1558 1559 1560 1560 1561 1562 1563 1564 1565 1565 1566 1566 1566 1567 1567 1567 1567 1567 1567 1567 1567 1568 1568 1569
1540 1541 1543 1545 1545 1546 1547 1548 1550 1551 1552 1552 1553 1554 1554 1555 1555 1556 1557 1558 1559 1560 1560 1561 1562 1563 1564 1564 1565 1565 1565 1565 1565 1565 1566 1566 1566 1567 1566 1565 1566 1566 1567
1539 1540 1542 1543 1544 1546 1547 1548 1549 1550 1551 1552 1553 1553 1554 1554 1555 1556 1557 1557 1558 1559 1560 1561 1561 1562 1563 1563 1564 1564 1564 1564 1564 1564 1564 1564 1564 1564 1565 1564 1564 1564 1565
1537 1539 1541 1542 1543 1545 1546 1547 1548 1549 1550 1551 1552 1552 1553 1554 1554 1555 1556 1556 1557 1558 1559 1559 1559 1560 1561 1561 1562 1562 1562 1562 1562 1562 1562 1562 1562 1562 1562 1562 1562 1562 1562
1535 1537 1538 1540 1542 1543 1545 1546 1547 1549 1550 1550 1551 1551 1552 1553 1553 1554 1555 1555 1555 1556 1557 1558 1558 1559 1559 1560 1561 1561 1560 1560 1560 1560 1560 1560 1560 1560 1560 1560 1560 1560 1560
1532 1534 1536 1538 1540 1541 1543 1544 1545 1547 1548 1549 1550 1550 1550 1551 1552 1553 1553 1554 1554 1554 1555 1555 1556 1557 1558 1558 1559 1559 1559 1559 1558 1558 1557 1557 1557 1557 1557 1557 1557 1557 1558
1530 1532 1534 1536 1538 1539 1541 1543 1544 1545 1546 1548 1548 1548 1549 1549 1550 1551 1551 1552 1552 1553 1553 1553 1554 1554 1555 1556 1557 1557 1557 1556 1556 1556 1555 1555 1555 1555 1555 1555 1554 1554 1554
1527 1529 1531 1533 1535 1537 1539 1541 1542 1543 1545 1545 1546 1547 1547 1548 1548 1549 1549 1550 1550 1551 1551 1551 1552 1552 1553 1553 1554 1554 1555 1554 1555 1554 1554 1553 1552 1552 1552 1552 1552 1551 1551
1525 1527 1529 1530 1532 1534 1536 1538 1539 1541 1543 1544 1544 1545 1545 1546 1546 1547 1547 1548 1548 1548 1548 1549 1549 1549 1550 1550 1551 1551 1552 1552 1552 1552 1551 1551 1550 1550 1549 1549 1549 1549 1548
1522 1524 1526 1528 1529 1531 1533 1535 1537 1539 1540 1541 1542 1543 1544 1545 1545 1545 1545 1545 1546 1546 1546 1546 1546 1547 1547 1547 1548 1548 1549 1549 1549 1549 1548 1548 1547 1547 1547 1546 1546 1546 1546